Tracking 23446 objects as of 20-Jun-2021
HD Live streaming from Space Station
objects crossing your sky now

STARLINK-2587

Track STARLINK-2587 now!
10-day predictions
STARLINK-2587 is classified as:


NORAD ID: 48399
Int'l Code: 2021-038AY
Perigee: 355.3 km
Apogee: 358.5 km
Inclination: 53.0 °
Period: 91.5 minutes
Semi major axis: 6727 km
RCS: Unknown
Launch date: May 4, 2021
Source: United States (US)
Launch site: AIR FORCE EASTERN TEST RANGE (AFETR)
aabbcc
Your satellite tracking list
Your tracking list is empty




NASA's NSSDC Master Catalog

Two Line Element Set (TLE):
1 48399U 21038AY  21170.91668981  .00067922  00000-0  48427-3 0  9990
2 48399  53.0487 174.7618 0002363  28.4381 340.6220 15.73203576  1823
Source of the keplerian elements: AFSPC